Tracking 19827 objects as of 22-Aug-2019
HD Live streaming from Space Station
objects crossing your sky now

COSMOS 2251 DEB

Track COSMOS 2251 DEB now!
10-day predictions


NORAD ID: 37287
Int'l Code: 1993-036BJB
Perigee: 414.4 km
Apogee: 520.8 km
Inclination: 74.0 °
Period: 93.8 minutes
Semi major axis: 6838 km
RCS: 0.0002 m2 (small)
Launch date: June 16, 1993
Source: Commonwealth of Independent States (former USSR) (CIS)
Launch site: PLESETSK MISSILE AND SPACE COMPLEX (PKMTR)

Note: This is SATELLITE DEBRIS
aabbcc
Your satellite tracking list
Your tracking list is empty




NASA's NSSDC Master Catalog

Two Line Element Set (TLE):
1 37287U 93036BJB 19233.91698012 +.00001975 +00000-0 +54181-4 0  9997
2 37287 074.0384 061.1612 0077822 340.1934 075.1685 15.35159355532309
Source of the keplerian elements: AFSPC